• Processing (Info)

  • MPEC 2023-Q32 : 2023 QR

    The following Minor Planet Electronic Circular may be linked-to from your own Web pages, but must not otherwise be redistributed electronically.

    A form allowing access to any MPEC is at the bottom of this page.


    Read MPEC 2023-Q31 Read MPEC 2023-Q33


    M.P.E.C. 2023-Q32                               Issued 2023 August 20, 01:24 UT
    
         The Minor Planet Electronic Circulars contain information on unusual
             minor planets, routine data on comets and natural satellites,
             and occasional editorial announcements.  They are published
        on behalf of Division F of the International Astronomical Union by the
              Minor Planet Center, Smithsonian Astrophysical Observatory,
                              Cambridge, MA 02138, U.S.A.
    			  
                 Prepared using the Tamkin Foundation Computer Network
    
                                  MPC@CFA.HARVARD.EDU
                URL https://www.minorplanetcenter.net/    ISSN 1523-6714
    
                                     2023 QR                                 
    
    
    Observations:
         K23Q00R  C2023 08 18.34606421 55 16.005-12 47 04.73         21.28GVEQ032F51
         K23Q00R  C2023 08 18.35811221 55 15.995-12 47 51.37         22.61GVEQ032F51
         K23Q00R  C2023 08 18.50154921 55 13.453-12 57 12.36         21.54GVEQ032F51
         K23Q00R  C2023 08 18.50218921 55 13.447-12 57 14.76         22.01GVEQ032F51
         K23Q00R* C2023 08 19.40562021 58 04.266-14 38 18.14         21.00wXEQ032F51
         K23Q00R  C2023 08 19.41445021 58 05.033-14 39 56.97         21.26wXEQ032F51
         K23Q00R  C2023 08 19.42306821 58 05.771-14 41 32.49         20.92wXEQ032F51
         K23Q00R  C2023 08 19.52696821 58 16.219-15 02 03.53         20.45GVEQ032F52
         K23Q00R  C2023 08 19.52760121 58 16.311-15 02 12.08         20.40GVEQ032F52
         K23Q00R  C2023 08 19.52823521 58 16.388-15 02 20.00         20.63GVEQ032F52
         K23Q00R bC2023 08 19.88502322 01 40.39 -16 51 21.6          19.5 GVEQ032L01
         K23Q00R pC2023 08 19.88650222 01 41.08 -16 51 57.9          19.2 GVEQ032L01
         K23Q00R bC2023 08 19.88798322 01 41.75 -16 52 34.7          18.9 GVEQ032L01
         K23Q00R bC2023 08 19.88946422 01 42.44 -16 53 11.6          18.8 GVEQ032L01
         K23Q00R KB2023 08 19.93172722 02 11.56 -17 11 16.5          20.2 GVEQ032I93
         K23Q00R KB2023 08 19.93644222 02 14.01 -17 13 26.6          19.6 GVEQ032I93
         K23Q00R KC2023 08 19.94043 22 02 08.83 -17 15 24.2          19.7 GVEQ032104
         K23Q00R KB2023 08 19.94109722 02 16.42 -17 15 36.2          19.4 GVEQ032I93
         K23Q00R KC2023 08 19.95065 22 02 13.96 -17 20 10.2          19.7 GVEQ032104
    
    Observer details:
    104 San Marcello Pistoiese.  Observers P. Bacci, M. Maestripieri, M. D.
        Grazia.  Measurer P. Bacci.  0.60-m f/4 reflector + CCD.
    F51 Pan-STARRS 1, Haleakala.  Observers J. Bulger, K. Chambers, T. Lowe, P.
        Minguez, A. Schultz, I. Smith.  Measurers S. Chastel, J. Fairlamb, M.
        Huber, Y. Ramanjooloo, R. Wainscoat, R. Weryk, K. Chambers, T. de Boer, J.
        Bulger, H. Gao, C.-C. Lin, T. Lowe, E. Magnier, P. Minguez, A. Schultz, I.
        Smith.  1.8-m Ritchey-Chretien + CCD.
    F52 Pan-STARRS 2, Haleakala.  Observers J. Bulger, K. Chambers, T. Dukes, T.
        Lowe, P. Minguez, A. Schultz, I. Smith.  Measurers S. Chastel, J.
        Fairlamb, M. Huber, Y. Ramanjooloo, R. Wainscoat, R. Weryk.  1.8-m
        Ritchey-Chretien + CCD.
    I93 St Pardon de Conques.  Observer F. Losse.  0.40-m f/3.7 reflector + CMO.
    L01 Visnjan Observatory, Tican.  Observer K. Korlevic.  1.0-m f/2.9 reflector
        + CCD.
    
    Orbital elements:
    2023 QR                                                  Earth MOID = 0.0001 AU
    Epoch 2023 Sept. 13.0 TT = JDT 2460200.5                Veres                   
    M 352.13564              (2000.0)            P               Q                  
    n   0.32488083     Peri.  272.31250     +0.55010832     -0.83495186             
    a   2.0956560      Node   144.29917     +0.77627089     +0.50448779             
    e   0.7164633      Incl.    1.50926     +0.30787067     +0.21988056             
    P   3.03           H   29.31          G   0.15           U   8                  
    Residuals in seconds of arc
    230818 F51  0.1-  0.0     230819 F52  0.0   0.4+    230819 I93  0.1+  0.1+
    230818 F51  0.2+  0.3-    230819 F52  0.1+  0.2-    230819 I93  0.5+  0.2-
    230818 F51  0.1-  0.0     230819 F52  0.0   0.2-    230819 104  0.6-  0.1+
    230818 F51  0.1-  0.1+    230819 L01  0.0   0.6-    230819 I93  0.6+  0.5-
    230819 F51  0.1+  0.4+    230819 L01  0.1+  0.0     230819 104  0.3+  0.2-
    230819 F51  0.1+  0.5-    230819 L01  0.2-  0.1+
    230819 F51  0.0   0.4+    230819 L01  0.1-  0.3+
    
    Ephemeris:
    2023 QR                  a,e,i = 2.10, 0.72, 2                   q = 0.5942
    Date    TT    R. A. (2000) Decl.     Delta      r    Elong.  Phase     V
    2023 07 21    21 47 11.3 -11 03 20   0.3953  1.3786   152.4    20.0    29.0
    ...
    2023 08 05    21 51 08.1 -10 46 46   0.1944  1.2038   165.6    12.1    26.9
    ...
    2023 08 13    21 52 23.9 -11 04 18   0.09483 1.1075   173.0     6.4    24.9
    ...
    2023 08 19    21 56 27.8 -13 37 02   0.02226 1.0345   178.5     1.4    21.3
    2023 08 20    22 02 45.3 -17 31 42   0.01029 1.0223   174.8     5.2    19.8
    2023 08 21    08 57 29.1 -24 09 01   0.0022951.0101    39.4   140.5    23.1
    ...
    2023 08 27    09 50 28.9 +09 44 39   0.07417 0.9370     7.4   172.0
    ...
    2023 09 04    09 52 19.1 +10 18 39   0.1736  0.8417    14.4   162.7
    ...
    2023 09 19    10 01 46.5 +10 01 14   0.3837  0.6835    26.6   138.9    33.1
    
    M. P. C. Staff               (C) Copyright 2023 MPC           M.P.E.C. 2023-Q32
    


    Read MPEC 2023-Q31 Read MPEC 2023-Q33


    MPEC number:

    Enter an MPEC number in one of the following forms:

    • 1997-B01 (the full form)
    • J97B01 (the packed version of the full form)
    • B01 (the abbreviated form)